[[{"header":{"parameterUnit":"m.s-1","parameterCategory":1,"la1":30.2991,"la2":30.254,"lo1":-89.0895,"lo2":-89.0444,"dy":0.0017,"dx":0.0017,"nx":28,"ny":28,"refTime":"2023-08-17T03:00:00:Z","depth":0,"parameterNumber":2,"parameterNumberName":"U-component_of_WINDS"},"data":[0,0,0,0,0,0,0,0,0,0,0,0,0,0,0,0,0,0,0,0,0,0,0,0,0,0,0,0,0,0,0,0,0,0,0,0,0,0,0,0,0,0,0,0,0,0,0,0,0,0,0,0,0,0,0,0,0,0,0.7109,0.711,0,0.7194,0.7194,0.7195,0.7245,0.7245,0.7245,0.7245,0.7335,0.7337,0.7339,0,0,0,0,0,0,0,0,0,0,0,0,0,0.6995,0.6996,0.7109,0.711,0.7111,0.7193,0.7195,0.7196,0.7245,0.7245,0.7245,0.7245,0.7334,0.7337,0.7339,0,0,0,0,0,0,0,0,0,0,0,0,0,0.7058,0.6997,0.7109,0.7146,0.715,0.7193,0.7195,0.7196,0.7245,0.7245,0.7245,0.7246,0.7333,0.7337,0.734,0.7354,0,0,0.735,0.7351,0,0,0,0,0,0,0,0,0.7054,0.7062,0.7139,0.7143,0.7148,0.7209,0.7187,0.7249,0.7245,0.7209,0.7245,0.7246,0.7293,0.73,0.7315,0.7359,0.7362,0.735,0.7352,0.7354,0.7355,0,0,0,0,0,0,0,0.705,0.7059,0.7143,0.714,0.7146,0.7159,0.7168,0.7199,0.7248,0.7212,0.7216,0.7225,0.7295,0.7312,0.7317,0.7364,0.735,0.7353,0.7355,0.7356,0.7425,0.7425,0,0,0,0,0,0,0.7039,0.7055,0.714,0.7145,0.7101,0.7161,0.7171,0.7189,0.7248,0.7257,0.7224,0.7227,0.7306,0.7313,0.7321,0.7343,0.7354,0.7357,0.7359,0.7425,0.7425,0.7425,0,0,0,0,0,0,0.7037,0.7046,0.7137,0.7101,0.7114,0.7162,0.7182,0.7191,0.7207,0.7257,0.7267,0.7232,0.7306,0.7316,0.7346,0.7346,0.7358,0.7361,0.7425,0.7425,0.7425,0.7385,0,0,0,0,0,0,0.7033,0.7045,0.705,0.7101,0.7115,0.7159,0.7182,0.7192,0.7212,0.7216,0.7267,0.7276,0.7307,0.734,0.7349,0.7351,0.7364,0.7425,0.7425,0.7425,0.7387,0.7384,0.7381,0,0,0,0,0,0.7029,0.7036,0.705,0.706,0.7123,0.7159,0.7167,0.7203,0.7212,0.7218,0.7251,0.7274,0.7344,0.7343,0.7353,0.7356,0.7426,0.7425,0.7425,0.7388,0.7385,0.7381,0,0,0,0,0,0,0.6985,0.7044,0.706,0.7084,0.7116,0.7167,0.7176,0.7197,0.7229,0.7231,0.7275,0.7286,0.7312,0.7337,0.7334,0.7374,0.7388,0.7389,0.7356,0.7353,0.7351,0.7344,0.7367,0,0,0,0,0,0.6978,0.7002,0.7052,0.7068,0.7083,0.7127,0.7144,0.7168,0.7204,0.7218,0.7253,0.7288,0.7318,0.7337,0.7368,0.7391,0.7403,0.7398,0.7395,0.7392,0.7394,0.7409,0.7407,0.7424,0.7424,0.7424,0,0,0.6965,0.6999,0.7012,0.706,0.7088,0.7113,0.7138,0.7163,0.7182,0.7222,0.7252,0.7279,0.7321,0.7347,0.7361,0.7369,0.7392,0.7392,0.7389,0.7392,0.7408,0.7407,0.7405,0.7423,0.7423,0.7423,0,0,0.6952,0.698,0.6997,0.7025,0.7066,0.7095,0.7099,0.7147,0.7166,0.7197,0.7228,0.7252,0.7303,0.7331,0.7352,0.7351,0.7374,0.736,0.7346,0.736,0.7359,0.7358,0.7358,0.7358,0.7361,0.7361,0.7361,0,0.693,0.6967,0.7004,0.7027,0.7048,0.7085,0.7103,0.7128,0.7178,0.7192,0.72,0.7265,0.7296,0.733,0.733,0.7345,0.7352,0.7355,0.7356,0.7355,0.7355,0.7356,0.7356,0.7359,0.7359,0.7359,0.7359,0,0.6939,0.6964,0.6973,0.7019,0.7041,0.7062,0.7103,0.7121,0.7143,0.7172,0.7203,0.7241,0.728,0.729,0.7312,0.7328,0.7332,0.7347,0.7362,0.7351,0.7353,0.7353,0.7356,0.7357,0.7357,0.7358,0,0,0.6901,0.6967,0.697,0.6992,0.7041,0.7062,0.7085,0.7122,0.7137,0.7171,0.7192,0.7234,0.7248,0.7272,0.7299,0.7311,0.7309,0.7325,0.7327,0.7322,0.7329,0.7318,0.7317,0.7324,0.7324,0.7324,0.7326,0,0.6897,0.6938,0.6972,0.7002,0.7026,0.7062,0.7082,0.7115,0.7142,0.7168,0.7198,0.7227,0.7244,0.7259,0.7273,0.7306,0.7311,0.7306,0.7345,0.7346,0.7334,0.7318,0.7306,0.7306,0.7327,0.7327,0.7327,0,0.6897,0.6928,0.696,0.7007,0.7018,0.7036,0.7073,0.7097,0.7135,0.7154,0.7181,0.7208,0.7235,0.7246,0.7285,0.7281,0.7299,0.7318,0.7319,0.7324,0.7336,0.7324,0.7307,0.7307,0.7328,0.7328,0.7328,0,0.6867,0.6917,0.6943,0.6961,0.7016,0.7027,0.7051,0.709,0.711,0.7143,0.7157,0.7193,0.7213,0.7241,0.7277,0.7282,0.7312,0.7327,0.733,0.7329,0.7335,0.7335,0.7321,0.7345,0.7345,0.7345,0.7345,0,0.6859,0.6877,0.6931,0.6947,0.6969,0.7008,0.7029,0.7056,0.709,0.7112,0.7146,0.7166,0.7213,0.724,0.7268,0.7297,0.7305,0.7322,0.733,0.732,0.7317,0.7333,0.7334,0.7345,0.7345,0.7345,0.7345,0,0.683,0.6866,0.6897,0.6947,0.696,0.6974,0.7017,0.7035,0.7063,0.7092,0.7101,0.7146,0.718,0.7219,0.7265,0.7284,0.731,0.7321,0.7297,0.7301,0.7303,0.7302,0.7299,0.7301,0.7323,0.7322,0.7322,0,0.6823,0.6838,0.6889,0.6906,0.6929,0.6956,0.6977,0.7016,0.7037,0.7082,0.7094,0.713,0.716,0.7212,0.725,0.7286,0.7298,0.7295,0.7304,0.7294,0.7299,0.7298,0.73,0.7292,0.7292,0.7292,0.7291,0,0.6806,0.6823,0.6852,0.6887,0.6911,0.6941,0.6972,0.6985,0.7031,0.7052,0.7086,0.711,0.7157,0.7192,0.7233,0.7259,0.7283,0.7288,0.7291,0.7281,0.7266,0.7275,0.7291,0.7288,0.7288,0.7289,0.7289,0.7289,0.6788,0.6804,0.6842,0.6873,0.6901,0.6929,0.6948,0.698,0.7008,0.7049,0.7071,0.7104,0.7144,0.72,0.7225,0.7253,0.7261,0.7265,0.7266,0.7267,0.7264,0.7261,0.726,0.7261,0.7261,0.7261,0.7261,0,0.6774,0.6801,0.6829,0.6871,0.6896,0.6916,0.6952,0.6971,0.7,0.7034,0.7064,0.7103,0.7138,0.7178,0.7216,0.723,0.7242,0.7239,0.7238,0.7244,0.7254,0.7248,0.7228,0.7228,0.7228,0.7228,0.7228,0.7228,0.6769,0.6796,0.6819,0.686,0.6887,0.692,0.6939,0.6966,0.6993,0.7035,0.7064,0.709,0.7127,0.7167,0.72,0.7211,0.7224,0.7217,0.7232,0.724,0.7243,0.7246,0.7241,0.7219,0.7219,0.722,0.722,0.722]},{"header":{"parameterUnit":"m.s-1","parameterCategory":1,"la1":30.2991,"la2":30.254,"lo1":-89.0895,"lo2":-89.0444,"dy":0.0017,"dx":0.0017,"nx":28,"ny":28,"refTime":"2023-08-17T03:00:00:Z","depth":0,"parameterNumber":3,"parameterNumberName":"V-component_of_WINDS"},"data":[0,0,0,0,0,0,0,0,0,0,0,0,0,0,0,0,0,0,0,0,0,0,0,0,0,0,0,0,0,0,0,0,0,0,0,0,0,0,0,0,0,0,0,0,0,0,0,0,0,0,0,0,0,0,0,0,0,0,3.4232,3.4232,0,3.4213,3.4212,3.4212,3.4187,3.4186,3.4186,3.4185,3.4162,3.4162,3.4162,0,0,0,0,0,0,0,0,0,0,0,0,0,3.4243,3.4243,3.4233,3.4232,3.4232,3.4213,3.4212,3.4212,3.4187,3.4186,3.4186,3.4185,3.4162,3.4162,3.4162,0,0,0,0,0,0,0,0,0,0,0,0,0,3.4233,3.4243,3.4233,3.4217,3.4215,3.4213,3.4212,3.4212,3.4187,3.4186,3.4186,3.4185,3.4162,3.4162,3.4162,3.4172,0,0,3.4161,3.416,0,0,0,0,0,0,0,0,3.4233,3.4232,3.422,3.4218,3.4216,3.4202,3.4208,3.4198,3.4187,3.4198,3.4185,3.4185,3.4176,3.4174,3.4172,3.417,3.4169,3.4161,3.416,3.416,3.416,0,0,0,0,0,0,0,3.4234,3.4233,3.4225,3.4219,3.4217,3.4209,3.4207,3.4206,3.419,3.4197,3.4195,3.4193,3.4175,3.4172,3.4171,3.4169,3.4161,3.416,3.416,3.416,3.4171,3.4171,0,0,0,0,0,0,3.4238,3.4234,3.4225,3.4224,3.4224,3.421,3.4207,3.4207,3.419,3.4187,3.4193,3.4192,3.4173,3.4171,3.417,3.4178,3.416,3.416,3.416,3.417,3.4171,3.4171,0,0,0,0,0,0,3.4238,3.4237,3.4226,3.4228,3.4226,3.421,3.421,3.4207,3.4204,3.4188,3.4184,3.4194,3.4172,3.417,3.4171,3.4177,3.416,3.4159,3.417,3.417,3.4171,3.4195,0,0,0,0,0,0,3.4238,3.4237,3.4243,3.4229,3.4226,3.4229,3.421,3.4207,3.4204,3.4202,3.4187,3.4184,3.4172,3.4171,3.417,3.4176,3.4159,3.4169,3.417,3.4171,3.4194,3.4197,3.4199,0,0,0,0,0,3.4239,3.425,3.4243,3.4242,3.4232,3.4229,3.4228,3.4214,3.4205,3.4208,3.4197,3.4185,3.4176,3.4172,3.417,3.4176,3.4168,3.417,3.4171,3.4192,3.4196,3.4199,0,0,0,0,0,0,3.4265,3.4248,3.424,3.4248,3.424,3.4225,3.4229,3.4218,3.4213,3.4211,3.4192,3.4189,3.4191,3.4183,3.4178,3.4182,3.417,3.4171,3.4187,3.419,3.4193,3.4194,3.4159,0,0,0,0,0,3.4272,3.4272,3.4257,3.4265,3.4261,3.4246,3.4244,3.4234,3.4225,3.4221,3.421,3.4201,3.4196,3.4193,3.4187,3.4192,3.4187,3.4195,3.4198,3.42,3.4201,3.4199,3.4202,3.4175,3.4175,3.4175,0,0,3.4286,3.4276,3.4278,3.427,3.4263,3.4261,3.4244,3.4244,3.4241,3.4221,3.422,3.4211,3.4199,3.4201,3.4201,3.4195,3.4207,3.4202,3.4204,3.4203,3.4201,3.4203,3.4206,3.4176,3.4176,3.4175,0,0,3.431,3.4304,3.4308,3.4301,3.429,3.428,3.4281,3.4267,3.426,3.4259,3.4243,3.4239,3.4232,3.4223,3.4217,3.4234,3.4222,3.4233,3.4247,3.4246,3.4248,3.425,3.4253,3.4255,3.4234,3.4234,3.4234,0,3.4328,3.4326,3.4312,3.4312,3.4307,3.4289,3.4291,3.4285,3.4273,3.4269,3.4262,3.425,3.4241,3.4239,3.4243,3.424,3.4238,3.4234,3.4249,3.4251,3.4252,3.4255,3.4257,3.4235,3.4235,3.4235,3.4235,0,3.4347,3.4346,3.4351,3.4339,3.4335,3.4337,3.4321,3.4318,3.4307,3.4297,3.4294,3.4282,3.4272,3.4271,3.4261,3.4266,3.4262,3.4253,3.424,3.4256,3.4259,3.426,3.4237,3.4237,3.4236,3.4236,0,0,3.4388,3.4367,3.4369,3.4362,3.4348,3.4345,3.4345,3.4336,3.4333,3.4324,3.4321,3.4314,3.4304,3.4297,3.4286,3.4285,3.4296,3.4274,3.4274,3.4277,3.4298,3.4304,3.4306,3.4287,3.4288,3.4288,3.4298,0,3.4408,3.4406,3.4392,3.4394,3.4391,3.4372,3.4371,3.436,3.435,3.4344,3.4332,3.4326,3.4314,3.431,3.4308,3.4295,3.4299,3.4294,3.4282,3.4282,3.4285,3.4308,3.4316,3.4326,3.4299,3.4299,3.4299,0,3.4431,3.4423,3.4425,3.4408,3.4406,3.4405,3.4394,3.439,3.4377,3.4369,3.436,3.4347,3.4342,3.4331,3.4323,3.432,3.4314,3.4306,3.4306,3.4303,3.4291,3.4304,3.4329,3.433,3.4301,3.4301,3.4301,0,3.4457,3.4447,3.4446,3.4441,3.4422,3.4421,3.4413,3.44,3.4394,3.4384,3.4379,3.4369,3.4363,3.4353,3.4336,3.433,3.4329,3.4317,3.432,3.4321,3.4321,3.4321,3.4343,3.4319,3.4319,3.4319,3.4319,0,3.4479,3.448,3.4457,3.4457,3.4456,3.4439,3.4438,3.4428,3.4416,3.4411,3.4394,3.4389,3.4368,3.436,3.4346,3.434,3.4338,3.4329,3.4326,3.433,3.4331,3.4326,3.4324,3.4319,3.4319,3.4319,3.4319,0,3.4508,3.4493,3.4491,3.4472,3.4467,3.4468,3.4451,3.4448,3.4436,3.443,3.4427,3.4407,3.4397,3.4379,3.4364,3.4355,3.435,3.4345,3.4355,3.4352,3.4356,3.4355,3.4375,3.4376,3.4353,3.4353,3.4353,0,3.4523,3.4523,3.4504,3.45,3.4493,3.4486,3.448,3.4462,3.4456,3.444,3.4438,3.4427,3.4417,3.4401,3.4384,3.4371,3.4364,3.4372,3.4362,3.4366,3.4362,3.4362,3.436,3.4374,3.4374,3.4374,3.4375,0,3.4549,3.4541,3.4534,3.4523,3.4516,3.4507,3.4497,3.4494,3.4473,3.4466,3.4456,3.4448,3.4432,3.442,3.4404,3.4394,3.438,3.4378,3.4378,3.4382,3.4387,3.4382,3.4359,3.4377,3.4377,3.4377,3.4377,3.4377,3.457,3.4568,3.4554,3.4546,3.4536,3.4526,3.4522,3.4508,3.45,3.4486,3.4475,3.4465,3.4449,3.4427,3.4416,3.4407,3.4401,3.4401,3.4401,3.4401,3.4402,3.439,3.4404,3.4404,3.4404,3.4404,3.4404,0,3.4593,3.4583,3.4575,3.4561,3.4554,3.4542,3.453,3.4524,3.4515,3.4502,3.4492,3.4478,3.4466,3.4448,3.4433,3.4429,3.4422,3.4425,3.4425,3.4422,3.4409,3.441,3.4431,3.4431,3.4431,3.4431,3.4431,3.4431,3.4604,3.46,3.459,3.458,3.4569,3.456,3.4553,3.4543,3.4532,3.4518,3.4508,3.4496,3.448,3.4464,3.4451,3.4446,3.4441,3.4446,3.4438,3.4426,3.4423,3.4421,3.4422,3.4445,3.4445,3.4452,3.4452,3.4452]}]]